Showing default

GRUS-1A, 43890

Orbit data source: Space-Track

GRUS-1A, 43890 is a payload satellite in SSO that was launched on Thu, 27 Dec 2018 UTC via a SOYUZ-2-1A launch vehicle from the Vostochny Cosmodrome (VOSTO). Payload-class satellites include a variety of spacecraft equipped with specific instruments for various scientific and technological missions. These include communications satellites like Starlink; space stations such as the ISS; scientific satellites like the Hubble; Earth observation satellites from companies like Planet Labs, Umbra, and HawkEye 360; GPS; miniature CubeSats for education and research; and military/defense satellites.

Loading next visibility...
Identifier
43890, 2018-111Q
Orbit
SSO
Country
Flag of TBDTBD
Related business
Manufacturer
AXELSPACE
Mission
Operational Commercial Imaging
Bus & Motor
GRUS, Unknown motor
Mass
80 kg wet, 80 kg dry
Launch date (UTC)
2018-12-27 (7 years ago)
Launch vehicle
SOYUZ-2-1A
Launch site
Vostochny Cosmodrome (VOSTO)
Object type
Payload
Rocket body
Debris
Shape & HBR
Box, 0.3 m
Radar Cross Section
0.375 m², Medium (>0.1 m² and < 1m²)

Expand to show TLE details & history
Last TLE update: 9 hours ago

TLE from 9 hours ago
0 GRUS-1A
1 43890U 18111Q   26171.30595272  .00001105  00000-0  96122-4 0  9997
2 43890  97.4496  38.2787 0009698 139.7493 220.4450 14.98844832408176
Epoch: 2026-06-20T07:20Z
TLE epoch observation values (Epoch: 2026-06-20T07:20:34.315Z)
Latitude
-0.00008°
Longitude
19.61326°
Altitude
578.657 km
Speed
7.568 km/s
True Right ascension
02h 33m 06s
True Declination
0° 00' 00"
Sunlit
Object was in daylight at epoch
Visualization orbit readout
Latitude
Unknown
Longitude
Unknown
Altitude
Unknown
Speed
Unknown
Apparent Right ascension
Unknown
Apparent Declination
Unknown
Sunlit
N/A
Visualization observer readout
Local Sidereal Time
03:29:20
Azimuth
Unknown
Elevation
Unknown
Doppler factor
Unknown
Orbital elements
Apogee altitude
574.196 km
Perigee altitude
560.724 km
Semi-major axis
6,945.597 km
Eccentricity
0.00097
Inclination
97.4496°
RAAN
38.2787°
Arg. of periapsis
139.7493°
True anomaly
220.37297°
Mean anomaly
220.445°
Eccentric anomaly
220.40898°
Mean motion
3.74955 °/min
Orbital period
96.01 mins
BSTAR
0.000096122
Loading maneuver chart data...
Computing Atmospheric mass density...

Documentation

Showing up to 5 results
|